Weather History for Monroe, LA

Change the Weather History Date:

Sunday, August 3, 2014

  Actual Average Record
Temperature  
Mean Temperature 81 °F 83 °F  
Max Temperature 89 °F 95 °F 107 °F (2011)
Min Temperature 73 °F 72 °F 62 °F (1965)
Degree Days  
Heating Degree Days 0 0  
Month to date heating degree days 0 0  
Since 1 June heating degree days 0 0  
Since 1 July heating degree days 0 0  
Cooling Degree Days 16 18  
Month to date cooling degree days 31 54  
Year to date cooling degree days 1287 1514  
Since 1 June cooling degree days 957 1079  
Growing Degree Days 31 (Base 50)    
Moisture  
Dew Point 72 °F    
Average Humidity 77    
Maximum Humidity 94    
Minimum Humidity 59    
Precipitation  
Precipitation 0.29 in 0.09 in 1.09 in (1975)
Month to date precipitation 2.10 0.28  
Year to date precipitation 34.16 32.58  
Snow  
Snow 0.00 in - - ()
Month to date snowfall 0.0  
Since 1 June snowfall 0.0  
Since 1 July snowfall 0.0  
Snow Depth 0.00 in    
Sea Level Pressure  
Sea Level Pressure 30.03 in    
Wind  
Wind Speed 5 mph (NE)    
Max Wind Speed 12 mph    
Max Gust Speed 16 mph    
Visibility 6 miles    
Events Rain , Thunderstorm    
T = Trace of Precipitation, MM = Missing Value Source: NWS Daily Summary

Daily Weather History Graph

Daily Weather History Graph

Search for Another Location

Airport:

Trip Planner

Search our weather history database for the weather conditions in past years. The results will help you decide how hot, cold, wet, or windy it might be!

Date:

Astronomy

Aug. 03, 2014 Rise Set
Actual Time 6:23 AM CDT 8:04 PM CDT
Civil Twilight 5:57 AM CDT 8:30 PM CDT
Nautical Twilight 5:25 AM CDT 9:02 PM CDT
Astronomical Twilight 4:51 AM CDT 9:36 PM CDT
Moon 1:18 PM CDT (8/3) No Moon Set
Length of Visible Light 14h 33m
Length of Day
13h 40m
Waxing Crescent, 47% of the Moon is Illuminated
Aug 3
Waxing Crescent
Aug 3
First Quarter
Aug 10
Full
Aug 17
Last Quarter
Aug 25
New

Hourly Weather History & Observations

Time (CDT) Temp. Heat Index Dew Point Humidity Pressure Visibility Wind Dir Wind Speed Gust Speed Precip Events Conditions
12:53 AM 73.9 °F - 72.0 °F 93% 30.02 in 6.0 mi Calm Calm - 0.00 in   Overcast
1:53 AM 73.9 °F - 71.1 °F 91% 30.01 in 7.0 mi Calm Calm - N/A   Mostly Cloudy
2:53 AM 73.4 °F - 71.6 °F 94% 30.01 in 7.0 mi Calm Calm - N/A   Overcast
3:53 AM 73.9 °F - 72.0 °F 93% 30.02 in 7.0 mi NNE 3.5 mph - 0.00 in Rain Light Rain
4:53 AM 73.9 °F - 72.0 °F 93% 30.03 in 4.0 mi ENE 6.9 mph - 0.00 in Rain Light Rain
5:53 AM 73.9 °F - 72.0 °F 93% 30.03 in 3.0 mi Calm Calm - 0.01 in Rain , Thunderstorm Light Rain
6:03 AM 73.4 °F - 71.6 °F 94% 30.04 in 1.8 mi Calm Calm - N/A Rain Heavy Rain
6:53 AM 73.0 °F - 72.0 °F 96% 30.04 in 1.0 mi Calm Calm - N/A Rain Heavy Rain
7:08 AM 73.4 °F - 71.6 °F 94% 30.04 in 2.5 mi NNE 4.6 mph - 0.01 in Rain Light Rain
7:17 AM 73.4 °F - 71.6 °F 94% 30.04 in 3.0 mi NE 4.6 mph - 0.02 in Rain Light Rain
7:29 AM 73.4 °F - 71.6 °F 94% 30.05 in 2.5 mi NNE 3.5 mph - 0.03 in Rain Light Rain
7:40 AM 73.4 °F - 71.6 °F 94% 30.05 in 3.0 mi NE 3.5 mph - 0.04 in Rain Light Rain
7:53 AM 73.9 °F - 72.0 °F 93% 30.06 in 1.8 mi Calm Calm - 0.05 in Rain Rain
8:32 AM 73.4 °F - 73.4 °F 100% 30.06 in 2.5 mi NE 8.1 mph - 0.02 in Rain Light Rain
8:53 AM 75.0 °F - 73.0 °F 94% 30.06 in 2.5 mi ENE 6.9 mph - 0.03 in Rain Light Rain
9:00 AM 75.2 °F - 71.6 °F 89% 30.06 in 3.0 mi NE 6.9 mph - 0.01 in Rain Light Rain
9:53 AM 75.9 °F - 73.0 °F 91% 30.06 in 6.0 mi NE 6.9 mph - 0.03 in   Overcast
10:53 AM 78.1 °F - 73.0 °F 84% 30.06 in 7.0 mi ENE 10.4 mph - 0.03 in   Mostly Cloudy
11:06 AM 78.8 °F - 73.4 °F 83% 30.06 in 7.0 mi NE 9.2 mph - N/A   Scattered Clouds
11:53 AM 81.0 °F 86.2 °F 73.9 °F 79% 30.07 in 8.0 mi NE 8.1 mph - 0.02 in   Mostly Cloudy
12:53 PM 84.0 °F 90.2 °F 73.0 °F 69% 30.05 in 9.0 mi ENE 10.4 mph - 0.01 in   Clear
1:53 PM 86.0 °F 91.5 °F 71.1 °F 61% 30.04 in 10.0 mi NE 8.1 mph - 0.02 in   Mostly Cloudy
2:53 PM 88.0 °F 94.7 °F 72.0 °F 59% 30.02 in 10.0 mi ENE 9.2 mph - 0.02 in   Clear
3:53 PM 89.1 °F 97.0 °F 73.0 °F 59% 29.99 in 10.0 mi NE 9.2 mph - 0.01 in   Partly Cloudy
4:53 PM 86.0 °F 92.2 °F 72.0 °F 63% 29.99 in 10.0 mi ENE 8.1 mph - 0.01 in   Overcast
5:53 PM 87.1 °F 94.5 °F 73.0 °F 63% 29.97 in 10.0 mi North 5.8 mph - 0.01 in   Clear
6:53 PM 84.0 °F 91.2 °F 73.9 °F 72% 29.99 in 9.0 mi NNE 8.1 mph - N/A   Partly Cloudy
7:23 PM 82.4 °F 88.2 °F 73.4 °F 74% 30.00 in 9.0 mi NNE 4.6 mph - 0.01 in Thunderstorm Scattered Clouds
7:38 PM 80.6 °F 85.4 °F 73.4 °F 79% 30.00 in 9.0 mi NNE 5.8 mph - 0.01 in   Scattered Clouds
7:53 PM 81.0 °F 85.8 °F 73.0 °F 77% 29.99 in 10.0 mi NNE 6.9 mph - 0.01 in   Scattered Clouds
8:53 PM 78.8 °F - 73.4 °F 83% 30.01 in 10.0 mi Calm Calm - N/A   Clear
9:53 PM 77.0 °F - 73.0 °F 88% 30.02 in 10.0 mi Calm Calm - 0.01 in   Scattered Clouds
10:53 PM 77.0 °F - 73.0 °F 88% 30.03 in 10.0 mi Calm Calm - N/A   Mostly Cloudy
11:53 PM 77.0 °F - 71.6 °F 83% 30.02 in 10.0 mi Calm Calm - N/A   Clear